GFSGBSN_2pvu_pres_315.txt.gz
Presure
181 180 180 189 197 190 187 185 192 193 194 183 179 190 213 186 191 195 205 202 193 180 182 183 183 174 172 175 179 176 181 177 178 183 181 184 179 178 183 183 187 199 199 200 199 197 195
191 130 190 195 135 194 186 189 178 193 192 206 201 208 182 202 214 201 195 204 195 189 191 179 182 173 179 179 181 167 191 180 176 177 180 186 189 187 189 189 189 188 184 186 188 180 187
190 188 193 130 106 104 152 146 193 192 188 194 183 187 195 208 200 211 194 206 203 194 192 182 193 193 186 181 181 179 181 182 185 195 199 198 196 207 196 198 200 197 196 197 199 200 202
124 191 204 202 97 119 206 189 196 201 200 198 188 189 195 209 202 208 195 198 206 199 196 193 182 182 181 194 197 196 192 191 191 195 202 202 204 209 201 208 193 194 216 223 221 209 206
202 177 208 199 97 208 97 144 186 192 156 197 209 206 192 217 212 187 209 205 211 206 201 192 200 196 190 192 193 194 195 198 203 202 208 211 213 212 216 218 218 215 214 220 231 220 216
213 127 205 193 96 151 128 97 104 225 209 198 216 212 224 210 215 221 209 156 206 201 206 205 205 205 205 200 201 205 203 203 202 217 219 217 216 217 220 217 210 208 219 216 233 230 229
130 208 132 214 211 218 210 103 198 129 221 203 226 230 217 235 222 216 224 220 207 209 214 213 212 211 212 215 218 212 214 216 218 224 227 243 233 233 233 226 220 227 223 227 230 233 232
144 195 209 133 219 213 218 217 180 128 209 218 157 167 227 227 203 126 228 220 215 214 220 223 225 221 224 215 218 219 225 230 230 237 248 242 241 231 230 231 235 240 241 241 237 240 239
207 127 214 215 232 187 178 211 233 156 210 161 136 167 227 211 225 184 187 232 228 212 190 226 227 232 230 232 234 235 239 253 260 245 238 239 241 237 247 260 259 256 256 246 243 251 255
208 186 132 142 177 239 149 224 100 219 206 199 225 215 201 224 244 238 143 234 231 244 241 234 207 223 249 252 260 268 252 262 266 264 261 265 266 257 256 261 263 262 265 268 267 255 223
211 196 189 198 189 151 217 216 226 122 237 206 217 206 196 256 251 241 238 203 201 194 192 192 219 277 198 196 287 271 248 243 248 241 286 288 278 240 240 186 237 225 213 211 212 207 205
204 199 150 197 203 202 204 204 223 225 220 207 227 221 235 205 240 225 204 209 190 210 200 212 209 207 200 252 247 253 258 246 242 253 241 232 228 222 213 215 210 202 201 203 217 224 229
195 195 202 207 203 183 192 199 192 227 208 231 226 212 212 213 218 215 208 214 209 217 207 206 206 209 208 205 213 203 213 212 204 206 216 217 210 208 217 223 234 230 232 236 237 249 248
204 207 211 206 198 195 197 191 183 190 208 224 145 211 214 197 214 214 206 214 224 218 229 229 227 223 213 212 220 218 220 207 215 222 219 221 238 245 257 242 251 259 267 276 280 286 227
208 205 210 205 203 201 199 196 188 191 183 181 215 225 215 219 214 201 225 215 230 228 213 212 201 209 217 212 215 209 219 220 218 213 244 235 205 229 224 231 208 244 272 267 259 224 227
217 215 206 198 202 206 204 209 192 191 185 180 212 190 222 215 193 201 223 200 214 222 229 223 213 222 225 231 242 240 232 229 198 214 226 227 234 243 240 225 219 256 241 294 308 335 302
225 214 201 196 195 201 195 207 205 201 215 197 187 195 204 213 225 215 207 205 222 220 215 210 220 221 209 204 228 199 221 234 213 231 232 217 231 241 229 237 233 283 302 349 316 308 300
228 202 194 202 200 205 203 200 210 209 206 202 194 199 190 188 181 225 195 222 216 209 192 225 201 193 204 223 194 225 204 210 227 231 238 230 234 249 247 318 275 319 357 353 306 291 299
226 216 214 207 197 204 200 200 203 216 203 206 213 207 217 211 203 203 182 220 209 192 215 168 216 200 208 210 206 213 231 213 228 239 224 239 240 226 322 313 316 308 342 323 293 294 261
227 211 215 213 208 198 201 187 192 207 202 210 218 200 206 205 193 214 219 206 201 191 181 209 178 200 194 209 218 214 227 232 240 230 230 223 255 340 331 353 315 334 337 290 282 290 264
184 226 217 216 207 203 203 201 204 203 201 207 206 206 201 207 206 207 194 206 217 193 196 215 188 199 207 207 207 170 235 222 241 231 225 234 353 331 421 397 354 335 290 274 273 265 260
225 220 181 224 211 206 206 206 201 206 197 177 210 178 189 187 193 207 196 198 207 213 205 193 200 204 211 210 208 223 227 228 237 243 237 344 334 412 387 364 351 289 275 271 280 263 240
232 231 224 215 214 213 202 200 182 173 203 193 192 189 193 199 195 215 211 194 210 195 201 212 226 207 205 210 225 224 222 237 238 244 341 344 406 379 353 346 291 273 272 268 258 240 230
182 181 227 217 210 216 213 205 203 204 203 203 200 197 197 196 202 204 199 205 210 210 214 204 212 213 213 218 226 222 233 230 240 337 332 374 370 358 342 290 267 272 273 282 239 231 216
192 223 220 226 223 220 217 215 207 199 208 198 197 196 202 196 216 212 194 217 212 220 220 213 208 223 227 221 208 227 226 238 358 338 327 372 365 338 304 272 265 276 262 247 232 220 220
210 215 193 181 225 224 221 218 214 209 211 201 206 204 208 198 209 187 203 207 204 212 209 215 205 213 208 221 223 230 245 261 357 341 377 355 349 304 286 266 253 260 251 236 222 220 209
211 183 194 200 205 224 218 217 218 220 218 218 216 215 204 200 212 230 215 207 212 221 221 218 221 213 221 224 220 262 323 364 352 379 365 353 320 293 276 262 266 258 240 231 223 210 218
192 211 176 183 188 210 215 218 220 220 221 221 218 217 216 220 217 221 219 216 225 219 228 218 218 213 217 217 228 355 367 399 378 362 366 389 302 289 271 267 258 249 235 224 216 217 208
204 207 218 206 217 187 216 204 208 216 223 218 216 223 226 221 224 226 222 218 221 224 223 217 217 229 223 214 313 371 398 369 355 362 400 343 292 294 269 275 256 240 231 218 213 209 207

GFSGBSN_2pvu_pres_318.txt.gz
Presure
178 180 149 132 191 169 181 179 188 178 189 192 184 177 192 182 188 190 206 190 190 198 197 206 213 189 185 179 185 181 181 181 180 177 178 167 175 174 175 179 179 180 190 192 193 193 192
165 151 129 187 124 162 184 187 184 164 193 191 189 186 180 196 192 195 183 188 213 212 195 195 203 203 193 186 186 182 186 188 180 178 184 187 186 179 181 188 190 197 199 197 196 189 196
129 136 180 173 198 177 166 183 183 195 199 149 158 195 191 157 201 189 195 203 204 219 207 199 204 208 199 199 196 204 199 191 194 197 196 194 199 198 196 190 190 203 203 210 209 218 209
133 193 171 132 205 203 97 97 186 201 164 203 206 204 208 206 198 209 195 199 195 215 207 193 196 203 208 203 196 199 203 196 191 194 203 205 197 201 210 209 210 200 219 220 224 225 224
134 204 134 169 164 132 189 191 97 167 158 127 167 177 206 163 136 220 215 205 214 210 212 217 205 208 209 209 193 195 194 201 205 204 204 205 206 209 208 209 221 226 223 235 239 240 243
159 197 191 164 154 191 194 197 203 152 95 97 156 188 182 209 159 219 215 218 217 213 216 225 205 206 211 212 213 215 216 214 216 219 220 210 223 228 228 229 233 245 251 244 240 237 242
195 124 211 203 131 202 165 201 214 169 102 215 128 134 210 130 224 219 209 235 236 131 224 221 213 224 223 217 212 223 225 226 232 228 231 229 226 240 263 261 257 243 237 233 229 231 255
214 150 127 203 208 121 210 163 186 208 218 187 216 216 201 213 227 136 141 218 123 231 231 193 214 210 222 222 219 227 219 224 227 242 249 262 265 263 257 253 257 257 262 259 253 250 253
213 197 197 214 215 165 127 192 213 205 206 215 175 120 176 177 196 238 200 236 173 160 201 240 215 223 233 237 238 240 247 220 197 250 279 268 292 280 266 283 283 278 274 262 250 239 228
225 156 187 200 140 214 197 147 220 149 234 237 155 237 233 238 212 230 214 197 209 228 254 239 240 241 212 200 203 203 199 282 233 263 254 248 249 251 251 246 243 230 216 210 210 209 205
207 213 175 207 204 183 167 186 125 154 173 213 136 158 183 239 205 219 230 198 248 236 250 228 198 208 208 209 201 201 211 211 240 263 251 234 228 217 219 218 213 208 206 225 229 230 229
197 217 225 207 127 216 207 186 186 206 127 206 211 237 228 215 213 226 218 255 210 231 218 213 190 210 216 222 216 215 212 212 212 207 214 216 213 216 240 238 216 225 239 236 206 245 249
205 215 207 204 211 207 208 203 203 195 138 200 196 237 226 209 228 209 212 214 210 216 216 210 212 215 226 216 232 230 230 224 216 218 216 226 220 240 222 231 209 239 230 246 231 216 211
194 204 210 213 198 199 204 186 179 198 196 190 199 194 197 213 220 208 152 214 215 211 221 226 227 204 235 222 209 202 206 231 254 250 227 219 240 202 246 243 213 237 236 242 244 237 272
209 200 222 202 209 213 208 205 211 211 202 187 196 194 187 184 209 217 216 225 231 229 187 233 229 232 236 232 223 216 225 208 205 234 197 221 218 236 246 232 236 243 245 227 301 309 339
193 168 189 201 196 225 212 218 205 212 205 204 201 208 192 214 183 212 213 225 212 225 226 214 193 234 219 215 227 216 198 208 210 212 225 214 208 236 237 228 228 238 231 300 341 344 316
196 207 212 194 216 227 208 200 208 203 205 208 209 212 199 211 183 186 195 196 197 198 228 200 224 223 222 186 176 222 199 206 208 217 217 226 234 224 238 227 235 297 328 363 342 322 318
202 209 197 231 194 209 200 209 211 205 196 205 194 203 209 212 209 197 202 226 226 215 204 202 197 202 218 196 203 220 184 206 221 227 217 239 246 227 232 257 241 332 314 296 339 303 291
200 204 198 196 195 217 219 212 201 203 204 211 206 205 215 215 214 218 211 207 210 197 209 224 210 204 225 196 183 196 192 217 217 217 230 231 228 229 245 273 318 302 308 296 313 300 288
209 204 194 204 219 175 222 213 208 206 208 207 203 198 197 213 209 211 206 206 209 209 200 210 193 206 213 143 196 192 221 216 224 229 234 236 234 234 365 348 317 290 302 327 296 292 262
196 201 199 206 225 201 198 209 215 212 214 206 200 209 207 211 207 201 210 190 188 184 214 200 212 217 208 209 207 221 223 231 225 239 242 233 261 312 357 435 418 316 309 296 285 265 256
202 174 206 151 193 191 219 211 220 209 213 203 205 216 209 215 204 182 199 194 196 200 211 215 207 206 206 209 211 227 219 232 240 226 235 257 303 409 399 387 375 324 279 260 275 260 256
179 205 203 174 199 200 181 222 211 191 214 211 208 219 203 197 204 197 202 210 202 203 203 204 217 220 214 218 213 221 229 230 225 232 236 252 389 388 378 360 301 275 268 264 257 239 235
188 197 198 188 189 183 219 211 212 218 219 196 209 207 202 168 201 209 202 200 195 184 207 216 208 206 213 217 230 232 233 235 239 238 233 361 396 368 343 282 266 259 271 274 249 235 229
204 191 204 203 199 192 191 231 219 205 208 208 210 212 213 207 208 204 215 205 212 212 211 199 218 233 226 227 224 230 234 227 228 240 386 413 370 334 269 262 264 265 271 248 236 227 222
208 203 191 183 203 207 212 179 221 223 224 214 218 222 216 213 212 212 212 218 214 225 216 230 224 228 227 228 233 228 224 217 240 255 371 409 338 285 270 261 271 261 250 239 228 219 220
201 190 185 192 196 199 197 200 224 222 215 204 223 222 220 224 225 224 221 220 219 220 228 231 228 230 226 224 234 230 233 245 227 419 405 383 327 278 272 261 281 273 236 232 228 223 211
186 216 201 179 179 175 207 188 213 199 201 202 219 210 227 225 224 222 223 221 227 232 229 221 224 227 231 229 220 236 239 231 401 390 397 328 308 270 266 271 269 242 230 226 224 215 215
182 179 195 197 197 193 197 215 183 208 202 186 207 194 201 208 212 221 228 229 225 223 224 221 229 225 230 230 239 239 228 269 395 369 386 320 295 274 266 272 252 235 229 223 220 211 209

GFSGBSN_2pvu_pres_324.txt.gz
Presure
179 128 154 132 160 141 180 178 134 177 172 176 188 175 187 184 195 192 205 183 183 193 185 164 196 210 190 197 210 193 205 208 203 202 207 215 196 190 189 192 193 188 192 193 191 185 182
184 173 182 142 132 176 163 172 124 158 148 180 134 195 144 184 136 203 216 169 193 188 187 204 199 205 204 193 216 211 206 184 194 201 203 203 215 215 200 201 204 203 205 210 216 212 207
153 188 145 155 129 160 135 140 164 136 167 131 176 186 150 150 193 195 157 201 180 152 207 214 215 205 219 209 205 221 212 211 215 225 211 207 204 203 216 213 218 212 206 207 204 215 230
148 191 144 179 183 165 142 173 183 149 162 183 135 168 199 211 205 175 207 214 216 211 190 206 213 216 214 219 220 223 217 217 216 218 214 226 227 229 230 227 231 228 232 232 229 234 252
191 185 191 158 175 125 158 182 187 194 192 200 183 134 97 202 100 198 207 205 213 210 208 208 222 226 219 215 176 231 241 225 227 227 229 216 234 237 214 246 246 219 244 209 195 241 281
149 173 188 187 134 162 127 168 132 193 155 192 158 160 96 139 196 188 204 226 200 216 196 215 215 209 173 218 125 230 114 232 223 212 247 245 245 261 249 193 190 212 237 268 276 255 250
187 190 182 172 178 188 194 153 193 135 194 135 98 135 122 98 126 103 189 127 200 210 205 138 218 176 223 226 126 225 206 213 118 237 249 274 255 216 217 205 216 217 217 210 210 212 214
146 184 189 182 179 180 172 151 181 184 141 204 198 195 196 137 216 223 199 214 212 213 168 220 238 232 228 149 255 211 205 235 276 260 209 219 217 224 226 222 219 220 211 214 225 230 229
158 165 166 168 174 183 180 189 190 185 190 169 194 200 206 221 134 181 214 223 170 153 240 252 250 238 225 232 234 229 215 246 217 219 218 212 233 228 216 207 215 240 241 225 221 217 218
175 174 181 182 180 179 175 186 187 192 208 173 161 143 195 218 209 136 227 194 194 221 213 235 233 237 218 230 251 214 216 221 220 232 235 241 233 213 212 240 233 222 217 218 212 206 217
182 187 195 182 195 193 209 198 204 212 203 159 221 136 231 196 225 198 204 192 205 198 125 253 241 217 235 209 178 217 222 219 213 240 223 227 235 224 218 218 201 208 207 233 242 214 207
184 196 204 201 209 212 210 206 217 212 214 216 192 221 226 213 211 133 167 199 191 182 195 213 236 236 220 221 204 234 244 199 234 205 216 222 205 221 234 206 200 189 201 236 236 232 230
193 208 153 205 205 206 215 217 217 211 220 215 219 234 220 219 164 209 211 207 206 170 200 195 197 206 215 201 228 219 235 226 207 225 228 216 210 198 187 194 205 192 187 247 231 235 265
183 194 199 204 190 199 215 219 224 214 214 212 236 209 217 214 213 212 206 202 209 204 196 194 195 192 185 192 199 206 205 200 198 215 207 227 230 219 204 208 250 190 237 237 254 256 241
183 185 187 192 207 207 201 176 213 211 213 219 219 216 223 226 221 216 135 193 212 207 203 209 201 217 207 201 197 219 213 212 218 212 229 226 225 224 240 240 252 245 251 253 247 334 371
191 210 198 188 183 179 176 173 188 212 198 227 204 217 210 212 190 186 219 214 220 216 218 224 222 236 225 220 216 215 214 214 208 220 223 234 228 231 234 242 260 248 247 251 342 320 345
196 200 199 194 192 189 182 194 196 192 217 214 165 213 208 201 229 212 232 215 217 212 215 213 222 220 222 215 218 213 209 203 225 226 229 227 227 245 256 253 237 242 256 363 325 303 315
189 193 200 196 182 190 200 201 192 192 197 212 216 213 185 212 214 229 221 216 216 213 211 208 218 219 215 213 213 214 226 218 224 228 232 233 256 260 256 245 240 250 355 335 309 315 302
196 190 190 192 194 204 171 194 174 194 199 210 207 212 235 242 231 212 210 216 219 217 209 221 214 217 214 209 215 217 222 232 223 231 249 248 257 255 258 253 253 436 359 301 321 309 286
198 195 190 204 192 196 199 207 186 201 208 205 213 204 209 216 195 220 221 217 221 220 213 225 216 215 210 216 223 224 226 232 244 242 248 252 253 264 264 246 435 371 309 311 311 298 261
197 193 190 191 176 195 199 206 201 205 207 215 208 210 229 211 211 219 225 219 219 225 222 220 214 220 221 225 226 229 233 251 250 250 239 240 252 255 237 430 371 318 308 294 294 261 255
187 194 211 196 182 194 163 207 225 166 192 211 216 230 229 227 215 221 217 200 217 227 216 215 219 221 224 228 237 251 252 243 237 238 239 260 269 252 252 360 323 293 303 283 272 259 238
212 200 164 184 186 205 205 196 179 184 201 204 213 200 201 213 216 190 220 225 225 219 216 221 231 233 227 250 251 254 256 249 247 243 264 257 253 242 361 315 306 303 284 277 267 246 239
192 214 184 194 197 189 190 157 214 199 141 168 219 201 206 217 210 213 217 224 225 222 234 231 236 241 236 219 247 245 246 250 244 250 261 247 242 243 311 294 279 284 282 268 259 238 225
215 176 204 183 210 198 133 195 199 190 204 233 196 183 201 216 200 227 233 233 221 234 161 191 209 241 237 231 228 241 254 259 260 252 243 241 233 327 294 287 296 284 275 258 238 225 219
197 163 157 172 195 180 195 193 198 162 198 201 179 209 203 203 196 224 223 226 217 215 210 192 208 206 216 235 238 247 249 264 255 248 240 225 248 322 304 289 274 282 273 244 235 223 219
215 204 181 205 193 192 202 153 126 193 199 173 186 193 196 205 209 229 213 216 206 185 214 226 231 226 221 227 225 247 251 263 256 241 240 239 303 309 298 286 287 286 250 235 226 224 219
180 197 207 169 208 191 212 187 210 206 202 190 197 205 203 216 220 198 198 210 221 219 226 208 231 232 219 229 235 249 257 257 255 239 245 317 313 306 277 293 286 261 244 233 224 220 214
162 202 208 202 193 192 211 197 200 209 190 212 209 191 183 191 185 190 213 213 210 196 230 231 223 232 232 229 234 253 259 250 236 249 400 333 310 302 292 283 286 254 245 231 218 215 213

GFSGBSN_2pvu_pres_330.txt.gz
Presure
163 137 143 154 157 153 123 149 152 176 150 162 132 163 180 130 164 187 126 202 200 185 193 194 208 208 203 200 204 204 217 206 201 207 207 210 212 210 220 216 228 228 225 225 225 224 222
150 141 144 125 167 113 154 159 177 178 149 130 148 191 177 193 134 201 173 167 135 165 192 213 207 204 204 211 166 205 211 215 204 204 207 207 186 216 159 220 224 222 230 233 214 235 192
136 167 170 155 125 170 174 162 178 144 186 182 138 164 141 135 188 168 169 132 188 210 185 191 201 204 201 151 228 205 213 158 208 210 146 184 171 196 236 224 229 234 209 226 204 220 255
166 161 180 160 171 128 176 148 128 177 184 135 132 188 127 132 153 140 191 155 125 136 199 172 183 138 197 200 215 195 214 209 211 215 217 214 227 219 207 236 242 209 223 260 274 214 210
167 130 142 153 161 157 165 187 159 187 146 180 166 133 186 197 186 187 153 136 150 178 163 167 186 192 204 169 158 215 212 211 213 214 225 248 259 234 255 226 211 263 219 215 212 218 222
137 170 172 137 170 179 156 177 131 177 175 167 182 195 130 188 182 172 96 127 97 176 150 193 173 214 121 224 219 205 186 212 150 258 218 222 215 218 215 223 213 219 221 227 227 229 238
151 124 189 187 157 130 181 159 166 191 181 192 169 132 125 209 148 186 125 192 171 151 194 206 193 217 234 208 160 202 201 204 221 245 236 219 226 230 226 218 206 221 218 235 225 228 225
165 158 132 194 138 155 169 133 170 181 181 201 196 132 128 131 131 182 163 98 119 200 201 214 219 233 226 142 205 202 149 203 197 232 229 232 224 210 224 232 246 237 219 216 224 222 227
120 161 174 157 189 174 169 153 165 186 197 186 132 127 157 155 187 184 148 150 203 196 222 179 177 233 190 177 198 211 198 132 202 198 196 228 202 211 241 228 222 220 218 219 226 210 216
177 157 166 187 121 159 171 161 180 165 186 191 156 175 187 194 176 181 187 196 190 175 216 214 129 229 221 215 216 213 213 195 205 196 198 196 189 199 197 205 200 209 210 213 215 217 220
173 183 165 201 163 195 151 137 184 161 186 205 181 160 166 188 178 189 189 201 227 223 212 240 233 216 216 136 212 213 202 206 211 207 214 208 203 224 220 216 225 222 217 217 219 218 242
171 183 163 156 153 176 158 160 172 150 200 182 148 161 176 177 180 188 195 195 227 192 218 217 216 215 216 211 209 193 130 217 215 222 224 224 228 220 219 223 218 216 217 221 225 251 256
177 131 187 178 127 147 150 186 161 182 156 183 159 139 160 180 190 207 197 222 227 211 243 217 223 216 220 218 225 130 219 224 227 228 225 223 219 221 217 219 223 234 236 232 262 264 259
172 170 125 136 174 188 182 188 165 170 181 178 183 182 170 200 207 241 218 217 210 213 215 198 227 221 232 224 137 207 210 223 215 222 219 222 228 225 222 219 236 249 271 258 256 258 260
174 178 106 143 138 141 157 181 163 161 167 166 163 165 190 191 201 210 210 194 213 222 209 214 226 219 222 214 218 221 224 219 219 224 226 227 229 239 243 254 270 263 263 258 271 258 259
168 159 174 174 172 181 178 187 153 176 170 179 178 194 188 192 220 192 183 186 216 185 222 215 207 186 220 217 219 226 224 227 231 227 228 238 245 257 283 280 275 269 281 276 266 249 291
173 160 171 161 179 173 160 166 175 178 181 197 193 194 231 215 214 193 216 198 202 201 219 243 234 224 217 228 233 228 230 232 233 244 251 269 264 257 286 288 269 283 267 255 305 341 312
180 176 163 183 184 155 171 187 141 163 157 188 177 180 210 214 208 216 199 207 205 205 214 206 216 231 228 228 226 234 228 234 247 266 257 250 261 278 284 285 277 260 253 374 322 313 284
199 206 189 185 177 218 201 184 201 207 166 206 158 202 197 213 199 217 199 225 217 231 222 227 231 236 229 222 234 230 242 259 228 238 237 243 286 283 278 261 256 433 357 335 325 304 282
180 191 189 207 215 202 215 212 218 196 218 216 198 198 217 210 208 218 219 219 224 224 228 217 217 215 233 236 239 241 221 200 240 243 247 266 279 273 255 255 341 348 326 331 303 273 266
185 175 187 198 209 214 151 198 215 181 211 197 205 211 216 197 202 222 193 224 212 221 211 210 238 228 238 222 217 219 211 239 239 243 259 262 273 272 243 248 332 336 318 306 262 266 256
202 176 180 211 208 194 178 211 166 212 213 206 166 212 203 178 236 206 189 184 229 236 230 211 237 243 194 204 213 207 232 239 246 254 249 262 275 252 249 334 335 315 280 269 263 246 236
212 194 208 203 153 198 207 209 204 190 218 182 179 191 206 183 190 191 204 200 208 218 203 209 238 211 202 220 241 236 252 246 231 243 237 259 267 237 241 336 314 309 272 265 248 243 228
148 196 195 213 185 202 180 202 213 179 196 202 162 213 186 138 180 219 191 205 224 221 203 207 227 204 224 217 228 241 209 238 246 257 263 260 267 234 241 324 262 293 268 258 244 235 220
210 173 185 195 211 199 187 199 200 198 196 194 206 196 202 217 193 207 196 212 227 190 219 215 207 201 222 200 221 218 218 223 242 271 267 269 262 230 240 272 306 283 268 247 240 225 219
209 183 182 199 189 221 204 195 194 161 172 204 183 198 193 211 213 189 213 193 176 205 212 200 220 227 218 228 205 220 212 242 271 288 279 265 230 238 242 281 317 278 258 245 231 212 216
186 200 177 193 206 173 214 191 196 205 197 194 195 201 167 209 213 192 207 204 212 215 219 202 211 208 214 208 217 208 208 243 288 284 271 256 287 265 244 314 284 258 250 241 227 218 209
180 201 175 181 194 204 167 205 186 176 202 175 141 176 192 194 198 185 185 218 207 222 210 207 189 207 215 211 202 228 227 279 292 277 539 488 427 367 319 286 283 258 242 234 220 210 209
182 204 188 200 222 188 195 206 185 198 194 173 171 202 182 172 201 212 194 203 232 223 200 191 206 197 203 214 219 174 219 287 277 556 546 451 406 344 313 280 266 250 243 227 213 210 207

GFSGBSN_2pvu_pres_333.txt.gz
Presure
151 161 166 168 169 171 157 181 163 135 117 125 157 139 148 140 181 182 174 161 147 143 197 175 191 183 151 192 204 209 201 199 213 188 212 210 214 117 217 176 181 226 190 238 235 235 217
154 143 161 167 172 163 160 149 155 156 162 146 125 148 137 137 170 145 182 201 197 188 182 191 185 168 212 174 189 209 209 211 221 214 214 211 208 212 128 220 128 234 243 251 216 253 217
157 180 168 124 170 166 166 167 139 121 153 154 165 170 134 124 164 178 176 142 125 205 202 163 157 199 205 185 210 130 131 196 136 213 214 217 219 216 209 224 246 227 224 232 254 213 218
144 165 174 169 163 169 161 141 174 161 167 173 169 130 173 193 180 138 132 132 188 135 104 132 197 186 206 184 187 200 214 222 189 218 128 143 126 218 248 254 245 240 233 220 229 221 212
181 150 181 161 174 159 139 156 184 132 152 166 169 164 165 166 169 135 199 195 197 210 180 108 178 168 166 216 178 214 163 229 224 192 200 206 203 211 254 216 220 226 223 211 223 218 220
182 144 167 151 122 160 162 155 181 169 165 163 163 181 134 193 179 157 151 135 145 147 160 164 139 195 206 198 134 197 134 191 219 219 206 156 205 200 200 214 223 222 215 217 230 236 241
186 161 127 170 165 161 166 161 154 191 164 173 168 159 158 125 142 186 134 183 156 169 176 188 185 198 206 226 214 209 223 154 226 223 218 132 137 201 202 197 196 193 189 236 194 221 220
177 165 162 134 139 147 168 135 187 189 171 176 176 165 175 168 180 199 150 131 125 149 196 178 185 191 232 223 211 241 237 230 218 218 220 214 149 211 207 214 214 209 204 211 210 228 216
187 183 185 166 168 171 138 149 175 135 181 135 177 140 170 180 200 155 147 134 141 160 182 183 163 214 184 224 206 239 224 165 124 217 213 204 176 215 216 218 216 219 218 223 221 218 227
198 174 224 126 178 169 173 171 152 190 159 127 144 178 163 188 203 139 208 182 189 183 185 184 184 225 221 221 239 223 217 219 218 213 133 172 221 220 224 233 232 228 226 224 222 222 225
195 190 185 125 179 123 148 146 199 138 177 201 184 128 167 199 173 128 180 201 131 176 189 186 224 215 217 222 201 223 229 227 224 228 130 221 220 232 230 222 224 222 225 232 224 229 231
162 189 175 220 175 152 169 176 193 169 202 157 133 179 164 189 182 165 168 172 169 140 180 213 214 214 221 222 216 231 226 231 227 156 218 218 222 221 222 227 232 226 227 226 233 252 262
165 176 190 143 214 193 160 168 225 152 177 148 185 165 179 196 187 179 183 173 179 214 191 215 201 219 206 221 217 229 209 224 222 223 226 228 218 223 225 228 230 248 275 284 285 278 264
181 156 176 181 195 159 147 164 147 155 191 192 156 154 195 188 139 161 179 139 176 202 220 200 215 198 199 226 218 216 201 225 221 220 228 230 236 246 258 271 272 269 263 285 280 277 273
141 173 190 187 179 182 194 154 203 210 167 191 163 175 174 178 165 182 162 177 200 205 210 226 206 201 219 226 235 234 230 226 234 239 242 244 247 282 252 257 277 287 292 290 280 278 269
171 147 132 155 163 197 196 191 180 188 154 157 178 158 172 165 194 182 189 187 180 216 221 213 210 217 219 232 210 227 235 235 232 242 246 268 239 255 268 277 295 284 279 272 271 258 259
180 182 168 152 169 161 175 169 148 149 165 150 171 175 184 147 175 164 200 176 200 214 229 207 215 221 222 226 231 234 234 239 248 261 236 210 235 264 267 285 282 266 264 295 356 326 300
181 189 168 163 184 177 177 120 182 178 174 143 180 146 185 177 180 195 180 233 209 224 223 225 222 224 231 219 237 234 245 251 228 235 242 247 270 258 269 278 263 260 390 348 313 301 295
165 185 183 183 159 174 174 181 130 165 161 157 163 169 182 188 223 198 227 217 216 176 215 218 208 239 232 234 242 246 236 212 221 238 239 259 265 251 272 265 254 365 334 314 298 300 268
192 182 197 163 145 191 183 180 181 186 179 190 206 183 185 221 212 221 206 213 177 127 225 217 225 215 227 242 238 245 207 230 245 249 249 266 276 282 270 249 297 333 314 307 300 277 262
197 193 192 192 183 196 186 172 212 205 177 195 175 197 220 154 214 216 149 218 219 231 208 211 234 211 247 211 231 216 241 219 250 213 221 247 274 273 267 241 309 326 289 276 263 258 248
185 175 212 218 208 181 196 173 224 162 210 211 192 210 167 218 170 197 225 197 204 179 208 218 206 220 222 231 217 228 210 245 209 233 228 254 277 267 259 238 243 290 282 271 255 255 230
193 222 200 194 192 165 215 204 195 199 201 193 192 183 214 175 201 212 197 183 223 214 187 220 216 195 231 217 210 216 237 210 215 211 224 270 274 269 255 228 238 283 271 272 256 233 226
189 199 202 209 200 211 197 197 203 211 203 192 210 181 210 210 199 203 156 221 164 205 218 143 197 203 202 230 227 224 227 211 233 224 267 275 269 263 253 225 237 263 275 259 245 228 227
216 187 199 178 195 188 206 198 205 186 213 210 184 162 207 187 177 187 215 217 218 156 196 210 210 225 233 231 220 227 231 210 215 216 283 292 269 256 245 226 236 279 270 256 227 226 226
214 185 215 157 179 194 198 202 208 197 205 200 197 211 201 213 214 221 192 212 211 217 219 209 231 217 213 203 212 223 210 232 240 292 299 274 326 414 257 238 238 283 264 252 226 215 220
218 194 189 191 211 176 215 204 201 200 202 204 188 199 202 204 199 195 201 202 197 191 218 215 216 221 229 215 225 233 220 223 233 299 279 549 453 408 349 329 243 275 256 238 218 220 213
190 189 193 182 197 195 185 189 207 194 204 205 196 186 169 183 202 179 208 182 205 178 205 190 209 208 215 223 218 226 213 207 297 279 554 522 448 408 334 302 280 269 250 222 217 211 213
189 197 187 189 200 186 154 203 185 178 209 160 185 179 189 183 192 155 209 136 204 207 192 198 193 211 194 207 219 205 200 232 301 549 521 458 400 349 299 285 274 258 236 218 218 212 209

GFSGBSN_2pvu_pres_339.txt.gz
Presure
148 167 161 151 144 130 160 154 167 141 170 153 167 169 128 157 127 143 162 132 142 128 183 199 191 196 144 156 175 180 163 169 125 208 200 192 193 201 213 166 160 217 231 208 204 196 208
187 151 168 156 170 156 169 166 149 150 149 177 155 167 130 174 127 123 155 173 130 174 147 185 170 195 149 199 188 184 180 191 193 186 201 197 181 182 216 226 220 242 233 168 221 206 194
163 176 174 151 170 168 173 154 172 171 125 143 171 150 173 165 154 149 137 148 169 134 178 162 178 172 177 200 174 184 180 158 202 210 134 119 205 161 216 221 205 238 232 218 198 219 150
170 162 171 174 175 170 167 174 154 137 170 136 159 128 184 133 172 130 170 160 171 135 160 182 172 102 189 155 187 158 163 183 191 212 208 214 151 215 217 204 234 220 221 220 221 198 212
186 174 175 171 168 163 151 182 176 158 142 173 161 157 166 172 168 158 133 174 131 135 163 99 135 168 96 96 178 140 166 197 170 215 205 155 212 216 227 238 222 172 223 219 216 135 228
169 169 171 176 126 173 149 150 176 171 173 171 159 165 176 162 131 166 138 173 170 158 147 96 159 171 95 171 175 154 157 137 216 207 217 138 222 216 220 226 227 238 230 230 231 205 221
188 177 163 173 188 163 157 149 145 165 144 177 148 142 170 128 149 172 152 157 186 143 169 130 179 161 194 195 176 130 183 152 210 210 201 209 196 223 220 222 227 234 229 225 226 228 224
143 228 186 173 161 167 175 167 161 161 169 160 176 164 135 170 144 169 169 176 161 152 167 173 193 112 160 184 172 182 183 147 210 162 216 204 202 220 222 225 195 229 233 229 228 229 227
143 179 173 167 178 167 149 171 159 174 175 162 170 161 163 147 135 165 157 187 181 127 193 165 208 161 161 162 182 170 123 210 218 186 211 212 216 223 227 224 229 234 218 231 231 232 237
199 177 178 173 177 173 169 186 177 168 151 156 161 166 138 174 167 167 176 141 174 179 181 184 169 165 161 149 191 130 194 221 170 150 208 212 215 222 241 223 232 232 234 237 245 255 250
194 181 145 160 165 175 171 186 120 135 155 146 159 173 164 157 177 168 156 181 168 124 175 169 198 161 190 170 196 175 196 223 176 219 207 215 222 237 223 234 237 242 252 265 256 206 272
185 169 167 136 165 177 181 194 140 162 167 151 170 158 183 163 144 185 173 131 159 212 151 184 158 162 168 172 190 156 191 172 209 209 216 224 233 237 239 246 269 263 244 242 279 281 257
181 182 194 175 172 176 175 147 184 119 181 129 186 158 163 179 175 167 167 138 160 152 163 161 159 141 175 190 174 218 222 217 213 222 233 235 240 236 261 240 246 259 255 309 308 280 286
184 176 173 176 157 173 190 174 174 180 158 167 174 175 181 174 147 187 187 194 169 160 153 135 143 174 155 189 136 196 211 214 217 216 239 245 250 269 223 262 244 238 233 302 298 275 250
173 182 177 181 195 152 187 193 158 162 174 164 125 196 136 183 174 193 207 176 148 168 169 158 178 133 181 188 189 217 214 216 222 232 227 225 246 235 260 235 232 225 305 283 377 379 328
193 182 183 183 180 191 149 187 180 171 178 177 187 182 179 151 151 174 185 196 186 177 132 177 160 146 205 223 200 211 215 227 226 239 242 263 232 221 221 227 219 260 312 358 339 316 291
137 183 179 173 185 175 189 175 169 175 183 187 174 156 181 152 178 186 174 193 159 167 149 146 154 178 236 220 204 203 232 218 243 223 228 220 222 226 213 214 212 291 348 326 309 293 275
206 188 158 177 182 184 142 195 173 166 172 208 162 185 198 167 178 204 206 209 194 148 146 134 185 223 193 213 172 155 223 212 223 243 231 253 226 224 221 232 276 279 326 310 293 281 269
198 195 185 165 184 169 180 187 160 205 171 164 198 194 159 184 137 180 188 196 145 130 142 230 218 145 212 208 172 221 216 237 243 224 250 228 218 216 218 218 268 271 264 299 282 270 262
214 225 181 177 107 167 174 148 192 181 171 150 148 160 172 160 153 172 188 149 168 159 172 185 147 173 209 178 204 218 221 213 221 209 215 213 216 213 222 222 270 270 257 285 278 258 243
208 219 183 181 171 177 180 155 131 186 204 188 185 216 168 105 182 183 164 176 168 137 142 206 180 211 208 208 225 206 224 227 229 219 219 216 221 224 242 218 266 262 250 286 283 247 235
211 205 193 177 171 172 179 163 179 162 173 175 184 170 153 188 179 177 188 152 141 152 198 211 193 153 203 203 201 232 235 237 248 212 221 221 219 229 216 229 260 254 247 284 251 238 228
207 206 191 175 164 175 174 177 137 160 166 172 175 176 173 170 181 185 148 161 197 192 168 177 211 136 217 219 226 232 231 227 223 230 229 247 243 214 225 259 257 249 243 278 248 237 216
203 201 200 178 175 183 166 174 174 175 159 176 182 172 160 146 181 201 144 119 178 201 152 214 199 193 206 224 233 210 237 229 230 242 244 257 225 283 273 261 256 246 233 284 242 235 210
192 203 190 176 189 158 186 161 170 177 160 182 143 155 182 186 223 133 138 157 199 211 210 201 189 206 208 225 216 197 237 228 248 234 259 296 297 375 346 341 249 285 233 258 242 219 213
197 198 208 187 170 192 167 162 189 191 176 190 180 182 195 237 163 221 181 222 208 215 202 218 217 205 225 151 208 243 243 261 261 426 451 438 413 384 358 339 316 288 234 254 239 211 227
180 194 196 197 191 180 181 186 198 203 174 163 173 190 214 209 195 205 213 208 204 189 213 194 208 218 221 227 236 213 238 294 544 559 574 531 409 365 340 322 300 262 264 244 226 213 235
197 194 194 199 192 193 192 169 180 193 174 192 204 205 215 188 189 219 185 180 190 207 202 219 197 220 203 241 224 217 229 542 512 530 523 512 371 331 326 301 270 267 246 233 217 222 244
202 173 190 199 190 193 186 198 192 184 196 200 182 189 215 184 161 201 204 202 210 219 212 227 211 205 217 227 222 242 451 489 512 494 476 413 325 311 332 271 264 252 239 224 212 239 262

GFSGBSN_2pvu_pres_342.txt.gz
Presure
160 161 159 159 147 156 164 145 168 160 174 165 150 131 140 130 129 160 134 138 133 156 133 175 134 149 140 184 142 196 197 150 176 181 177 149 189 204 173 207 178 179 222 162 164 225 247
178 166 171 125 155 153 153 162 136 133 154 158 146 163 166 173 159 172 132 172 138 161 161 135 170 142 168 167 136 187 185 169 153 168 137 193 209 208 205 213 162 201 215 216 207 228 223
165 167 180 165 176 155 154 126 164 146 133 156 128 126 160 132 173 143 126 174 151 134 167 170 179 126 136 154 137 198 169 178 166 116 105 191 140 213 210 204 155 202 245 215 208 235 210
175 175 178 169 167 172 159 169 127 170 171 167 132 165 153 177 168 160 150 164 155 167 172 154 174 174 173 138 95 97 163 204 180 174 173 135 188 212 213 203 203 207 212 242 223 81 234
195 175 172 194 173 161 174 174 152 157 164 156 134 165 165 148 159 139 158 168 173 167 126 181 131 167 96 182 186 194 185 160 177 152 167 131 222 214 211 213 206 204 188 223 227 231 147
174 188 174 173 168 163 161 181 166 170 174 158 149 157 161 165 168 168 175 128 164 147 162 140 173 159 171 170 134 148 142 177 171 155 169 126 214 214 139 219 212 210 214 225 231 249 224
170 184 198 187 172 191 175 159 178 170 168 166 172 167 159 178 164 153 179 171 132 167 143 174 171 148 185 165 133 160 175 168 150 188 124 195 214 230 217 219 210 212 216 243 215 225 228
177 192 174 190 180 173 181 165 162 175 171 156 170 153 166 175 178 173 182 140 164 170 158 145 177 146 166 170 157 179 166 165 164 195 195 204 198 209 218 219 210 223 236 227 229 238 240
194 171 200 191 182 207 184 178 174 132 182 178 164 153 168 173 164 160 172 169 145 134 176 147 160 160 161 187 185 158 170 140 168 161 201 203 204 223 218 220 228 238 236 236 228 244 262
190 180 174 177 174 192 181 175 175 171 173 172 176 172 172 164 168 180 158 177 133 176 166 171 141 181 131 176 149 178 151 161 167 154 194 214 224 220 224 232 244 240 237 244 265 226 245
191 195 193 195 170 164 175 182 169 187 177 172 194 178 161 170 173 165 174 131 179 170 170 178 192 191 185 141 143 187 153 146 130 200 216 226 222 220 219 234 245 244 267 235 223 252 232
207 191 178 191 188 175 161 182 184 179 166 170 176 169 178 179 176 139 156 154 174 163 183 167 184 158 168 163 135 159 149 135 157 218 222 220 223 230 235 236 265 245 226 223 239 229 247
204 191 184 163 181 171 162 171 186 214 182 154 176 161 168 175 153 165 170 173 161 160 166 180 180 168 176 154 134 159 150 165 198 177 226 220 223 227 237 212 231 229 231 231 219 355 325
206 197 178 180 184 169 171 173 195 168 164 173 184 189 145 183 182 124 173 170 181 183 183 177 187 166 189 180 118 132 148 179 179 235 227 222 236 234 226 230 224 226 237 227 244 341 297
217 205 197 181 183 191 173 184 171 167 154 178 163 123 178 185 165 171 168 173 176 182 184 179 151 177 179 175 175 137 176 166 189 143 219 234 220 225 239 232 226 226 230 297 385 342 303
212 200 211 186 178 180 189 176 177 172 172 169 177 181 120 156 186 183 179 176 170 185 178 187 121 177 169 186 161 143 196 197 213 219 225 217 235 229 222 229 236 227 229 308 328 297 283
210 209 200 189 133 174 179 192 200 187 203 183 129 122 181 173 148 139 175 183 184 194 179 178 188 129 181 186 182 192 226 231 151 215 225 236 232 220 217 219 228 223 224 276 296 285 267
217 209 205 186 177 181 184 148 209 191 202 168 208 163 180 180 171 178 113 177 184 187 185 214 136 143 175 135 140 145 226 217 222 225 227 225 203 235 223 217 236 225 219 265 296 283 271
221 206 206 208 181 171 178 182 183 190 175 201 157 191 191 172 174 181 183 181 160 161 187 141 164 151 190 133 150 144 226 221 219 188 179 229 260 234 215 220 225 232 211 261 281 285 252
228 204 206 200 195 172 186 180 186 194 195 167 196 148 170 161 170 109 218 166 152 163 161 188 167 130 179 173 154 188 192 170 214 219 231 239 238 227 223 239 235 224 198 259 290 280 248
222 205 213 205 193 183 158 184 185 180 200 190 186 183 167 160 201 174 111 219 188 182 132 137 191 150 155 173 160 224 231 222 233 227 230 237 220 233 238 235 244 226 261 255 246 263 244
224 216 206 206 194 176 169 145 177 191 186 186 198 172 194 183 210 163 165 196 175 168 190 133 201 225 150 148 157 215 215 231 234 201 220 238 235 248 241 229 242 252 261 253 244 267 239
221 212 202 206 203 178 137 174 138 177 173 143 198 185 198 175 195 160 176 179 159 176 143 184 155 163 219 195 165 219 235 220 215 241 242 245 247 240 230 244 245 260 259 250 240 260 239
211 208 213 206 203 188 171 167 169 154 181 192 199 155 134 158 178 165 162 171 138 129 170 217 198 217 183 222 197 213 190 231 235 227 241 240 257 272 270 274 311 287 252 246 237 256 229
203 177 205 210 190 185 178 173 172 106 132 196 187 183 180 186 162 104 150 185 201 168 159 211 212 190 142 177 227 236 247 236 235 247 281 433 436 416 387 373 353 323 253 254 246 252 227
208 208 196 205 206 194 172 175 190 152 183 183 174 180 188 192 187 188 153 186 167 211 125 153 220 195 203 188 216 237 233 241 281 555 560 460 410 398 367 342 325 300 281 261 246 237 229
208 212 200 199 201 179 182 177 176 178 175 155 155 174 172 186 171 165 188 158 203 166 176 162 212 219 216 217 235 238 234 264 539 531 553 423 397 351 334 318 306 279 264 242 240 227 273
209 210 197 201 207 185 185 182 160 159 172 177 177 162 137 152 187 188 176 215 171 212 200 209 224 202 229 225 224 232 228 523 515 517 423 394 348 320 321 299 276 264 253 242 232 238 285
205 213 197 197 200 204 188 189 174 173 178 154 163 182 180 164 189 191 213 218 164 217 198 197 210 201 222 173 231 224 289 526 445 392 361 338 331 311 297 273 258 249 252 226 226 261 274

GFSGBSN_2pvu_pres_348.txt.gz
Presure
187 187 191 176 178 173 163 152 140 173 150 163 150 157 147 137 169 130 147 138 162 149 172 145 146 166 130 132 150 161 168 165 183 158 168 162 153 174 167 183 165 160 168 133 133 178 209
179 165 183 183 171 182 188 174 153 173 170 145 166 154 130 180 123 153 148 135 148 152 135 178 150 129 177 125 173 147 154 161 96 155 120 163 168 162 146 167 176 209 165 133 131 181 164
199 186 200 136 209 167 167 182 155 171 151 172 174 168 166 131 152 168 151 144 122 136 161 150 168 135 186 177 144 157 102 182 170 92 163 160 172 180 195 163 191 169 133 167 177 186 173
195 185 198 148 203 172 169 184 160 173 157 170 161 176 168 173 162 140 165 171 161 160 151 167 156 176 176 169 183 130 96 123 148 172 179 180 156 185 168 177 201 169 168 171 180 200 222
172 178 178 203 194 183 146 162 185 194 158 148 171 173 165 170 127 162 165 155 179 150 134 159 171 172 172 185 97 156 125 166 171 167 92 148 129 182 160 156 168 169 170 188 202 164 216
183 170 196 183 196 178 174 172 153 172 188 184 163 170 134 156 142 167 169 166 168 151 142 147 173 179 177 170 120 147 170 124 175 170 185 168 185 180 126 169 193 183 191 195 200 206 209
200 188 172 194 156 136 171 203 209 170 186 184 151 174 189 135 162 171 178 180 132 173 171 137 166 164 148 160 135 175 184 173 171 179 148 145 187 187 138 198 188 187 189 140 200 240 232
213 191 188 171 180 176 188 188 180 171 167 154 181 196 158 154 178 155 140 176 178 151 172 142 170 173 162 148 175 150 162 147 137 107 128 191 156 193 188 180 187 194 186 192 234 233 223
202 191 186 182 179 191 181 186 179 185 173 183 154 178 165 182 188 174 162 155 173 169 166 170 158 168 165 164 186 181 163 144 140 153 187 192 143 183 141 187 193 181 180 199 235 229 242
205 204 197 187 185 185 186 177 190 182 181 163 184 192 192 193 171 159 187 180 161 172 163 167 165 147 153 177 174 157 135 143 174 141 164 187 159 194 170 196 157 179 192 240 226 238 239
194 199 199 207 191 193 160 178 181 133 161 170 182 171 186 184 189 181 163 190 181 178 164 162 147 177 171 169 167 127 179 122 132 141 174 111 180 193 193 179 190 199 235 230 229 228 222
204 193 194 198 194 198 185 184 191 178 142 181 157 192 187 177 184 195 182 181 191 178 187 185 181 180 179 180 166 160 181 158 176 166 196 170 158 191 180 180 179 180 217 233 227 224 253
207 212 188 193 194 192 202 193 173 175 139 202 177 173 176 182 180 174 186 170 176 174 184 185 180 178 160 183 168 145 182 184 164 172 168 106 147 197 184 184 186 209 234 229 221 247 241
205 181 206 184 195 187 192 195 181 197 188 185 192 182 187 174 187 191 194 169 184 192 177 182 186 168 178 182 179 103 124 181 155 158 196 188 159 185 178 172 178 226 237 233 240 242 230
206 205 197 196 198 193 190 188 198 193 191 184 156 202 168 184 182 194 173 186 194 194 186 153 141 180 167 130 152 122 184 126 170 146 111 156 167 186 202 212 218 232 235 249 227 224 239
203 204 194 196 200 196 203 195 190 212 195 183 199 200 182 192 168 181 169 170 182 197 190 186 181 168 146 170 174 116 173 171 198 151 140 184 184 169 165 228 224 225 226 243 216 240 245
200 203 202 195 198 200 204 202 196 206 187 184 169 182 182 143 201 193 184 183 187 154 185 174 171 150 163 182 177 140 185 112 144 162 177 140 213 225 224 228 203 220 232 214 231 235 244
203 204 203 196 198 198 200 195 202 204 199 196 190 189 196 206 189 168 197 188 197 118 177 187 177 144 192 133 142 150 122 136 133 112 178 177 225 226 231 236 235 226 221 236 226 234 234
213 205 205 205 200 197 196 200 196 195 206 203 187 182 186 197 189 173 182 168 187 171 176 117 175 187 185 112 187 136 100 132 135 154 163 206 123 132 231 234 231 243 239 229 230 227 232
221 211 206 199 212 196 197 201 203 201 198 197 192 186 186 189 193 196 178 179 168 177 168 123 198 170 168 131 151 125 161 178 148 169 212 178 187 232 237 234 246 236 236 228 225 240 245
223 216 212 206 195 174 188 191 200 196 191 208 188 186 168 195 194 196 161 179 129 177 186 183 148 162 135 177 169 166 157 142 152 233 243 211 233 240 226 228 246 241 233 223 237 272 278
227 225 225 219 211 203 201 191 191 207 207 205 197 190 188 185 201 179 177 195 188 151 160 129 195 153 125 132 169 121 149 142 244 242 243 241 233 227 215 251 246 235 224 254 292 308 322
231 225 215 227 204 208 208 210 204 193 197 202 189 189 183 181 179 187 195 192 193 177 196 191 132 188 189 176 160 145 183 134 158 154 255 258 268 262 249 249 262 273 300 322 317 319 306
241 225 217 226 222 205 215 206 224 211 205 193 166 186 174 177 191 185 170 189 203 166 188 196 177 186 160 185 182 157 110 239 243 221 261 266 263 362 367 405 379 346 329 317 312 301 260
238 231 221 224 222 218 212 221 218 215 183 195 194 168 194 187 179 190 170 173 180 153 200 190 167 180 146 183 200 217 226 136 256 311 537 510 442 432 459 403 360 327 322 311 291 280 250
228 226 222 227 223 221 227 216 212 213 193 193 187 187 180 178 187 164 200 179 186 143 161 198 157 182 163 146 146 225 195 266 232 471 504 489 406 363 402 360 326 322 293 282 266 252 243
227 213 217 231 225 231 203 221 213 207 201 187 183 190 178 189 185 167 186 177 148 120 178 180 142 177 164 142 193 187 237 506 467 471 382 363 354 361 337 320 310 288 278 262 252 243 251
214 214 205 228 224 226 197 214 207 202 200 190 183 172 192 183 188 170 178 188 171 168 178 167 177 149 130 145 189 231 347 412 381 381 375 380 358 322 321 291 276 272 257 245 240 251 265
211 215 233 228 222 224 202 219 205 204 197 196 188 187 176 171 171 187 170 200 124 186 187 179 165 145 126 139 254 166 346 370 361 351 338 319 313 290 287 267 254 243 234 285 273 263 256

GFSGBSN_2pvu_pres_351.txt.gz
Presure
170 147 191 153 196 166 158 180 174 155 159 146 168 171 164 164 167 130 158 157 150 140 150 136 146 158 147 158 151 136 152 136 140 173 97 97 173 98 176 164 189 164 188 176 164 180 176
213 210 178 209 206 206 187 162 152 161 142 170 160 159 162 173 143 139 132 163 144 129 155 143 170 132 161 179 157 125 171 142 135 153 165 154 142 144 136 166 158 187 188 154 162 167 199
205 201 209 190 206 212 194 201 149 170 154 185 173 162 153 146 165 150 148 176 127 161 143 124 133 135 139 186 159 175 124 169 98 146 152 153 136 145 134 180 125 192 188 173 197 199 193
185 209 213 217 122 192 187 172 196 154 160 179 182 161 166 165 168 173 134 128 161 125 152 171 163 132 133 150 170 159 160 177 157 150 143 143 153 173 179 181 176 193 169 202 192 196 197
183 184 196 201 199 188 190 200 206 182 199 179 158 173 174 156 137 173 158 163 161 148 160 169 168 148 138 152 151 175 134 147 161 122 169 179 145 179 181 190 159 194 197 170 182 199 184
198 180 149 171 177 204 192 184 160 173 188 186 161 179 182 156 167 161 133 142 172 150 155 160 148 156 146 171 157 150 175 149 173 177 163 143 168 125 184 167 168 192 107 198 186 173 185
223 193 182 173 200 182 183 178 139 197 214 207 182 194 151 179 131 174 161 121 161 157 168 182 142 174 119 184 131 178 167 170 181 124 91 169 156 191 129 182 186 99 198 195 194 183 185
211 215 211 172 171 181 171 185 189 179 186 194 187 182 168 182 186 183 178 166 175 179 167 165 171 129 178 181 177 162 182 144 162 166 169 178 180 140 175 180 190 193 193 196 189 188 181
211 200 217 196 186 178 162 187 181 166 181 148 189 177 171 189 168 172 169 168 187 162 180 128 166 172 142 163 152 164 152 174 168 178 148 161 146 165 184 189 179 192 162 195 188 187 199
204 214 205 204 197 185 160 174 179 195 203 202 173 203 171 182 173 153 189 172 178 183 167 184 169 180 180 163 173 150 180 167 182 168 183 167 162 180 178 189 185 175 191 185 195 187 215
202 202 201 215 192 200 196 154 198 200 198 162 183 205 185 161 178 180 178 171 163 216 184 188 187 192 190 188 186 183 173 178 131 182 87 122 181 123 171 115 167 186 147 189 184 197 233
223 205 205 208 213 208 200 194 192 190 193 195 198 178 173 194 188 182 172 182 167 167 192 188 186 193 182 190 171 141 186 179 173 109 180 177 177 185 167 180 128 187 185 192 205 227 231
221 225 209 211 212 205 202 193 191 187 178 184 188 192 199 181 172 166 194 177 184 170 200 186 175 186 186 188 167 181 187 174 171 109 176 187 151 184 196 169 199 195 170 182 242 228 230
213 204 201 212 201 205 203 197 203 194 186 201 180 186 161 201 187 180 186 172 170 165 191 184 198 189 181 204 169 187 183 170 183 169 186 186 152 135 134 197 192 185 183 206 218 231 225
207 213 193 198 211 203 200 204 203 192 191 184 188 191 172 185 190 193 190 192 188 177 190 152 174 185 195 192 189 186 182 175 154 161 109 125 126 165 135 158 131 181 189 201 238 232 238
210 208 211 160 160 207 205 195 198 202 193 203 190 189 189 145 193 191 192 197 189 192 189 189 173 177 194 160 186 147 192 157 185 195 170 161 189 127 136 191 186 192 215 223 227 229 248
211 213 207 205 205 207 205 195 189 189 198 198 194 196 200 184 193 188 168 159 206 191 180 204 194 183 198 188 179 173 173 174 128 180 123 134 158 220 137 158 196 216 240 231 237 219 236
235 212 213 203 202 206 202 204 198 193 194 198 194 196 197 191 181 193 191 203 178 200 204 205 114 204 172 187 174 176 194 198 186 101 190 183 213 195 135 161 233 245 232 232 209 223 242
228 209 213 202 209 209 205 203 203 201 193 193 181 193 190 190 176 193 196 196 180 193 194 187 187 183 191 168 127 167 111 175 154 174 146 187 177 132 195 230 245 240 238 239 234 236 241
225 229 211 212 206 198 201 199 202 197 201 202 204 204 193 202 204 199 187 132 180 191 195 188 190 179 177 179 113 164 195 188 160 187 177 184 196 206 222 235 245 243 242 242 237 235 235
218 224 225 212 208 195 195 200 198 195 193 195 200 199 205 199 199 180 196 196 189 147 174 199 194 160 180 195 170 126 100 142 181 158 198 129 226 179 244 231 227 254 245 241 237 238 248
227 219 218 205 207 206 196 204 199 191 195 199 200 199 196 205 200 196 182 193 200 199 177 172 180 187 195 202 182 203 131 123 192 211 202 224 224 229 246 224 245 245 238 233 238 252 331
240 223 226 209 205 206 197 201 198 191 191 196 206 191 197 192 197 194 184 212 197 182 194 146 194 195 139 195 200 210 203 161 193 200 118 118 248 257 260 256 244 246 264 282 300 333 307
256 218 224 236 205 200 205 196 196 201 194 194 199 199 195 197 196 171 193 182 201 186 172 171 202 200 199 145 127 172 127 154 128 249 105 158 282 268 451 436 408 380 351 337 323 303 301
261 240 211 231 216 215 201 207 196 194 194 187 200 194 195 196 187 193 201 192 199 161 177 169 170 201 123 130 204 191 149 224 110 240 277 488 437 462 448 456 403 365 335 315 303 295 275
263 248 218 223 220 207 211 203 200 206 196 198 192 183 186 196 193 175 157 187 195 201 166 191 188 186 177 124 176 135 226 254 101 107 491 441 406 417 403 374 348 331 308 297 285 259 253
254 251 224 216 224 218 200 211 205 200 197 192 194 191 185 186 190 184 193 177 171 198 164 185 197 148 125 149 183 175 280 265 410 393 426 417 403 362 345 326 305 295 285 274 260 249 254
244 251 219 222 232 218 217 219 211 209 199 204 201 210 194 180 164 186 190 187 185 188 169 180 156 197 183 125 147 238 351 278 398 390 379 361 338 318 308 299 281 267 258 248 240 252 262
239 247 217 207 225 208 216 216 214 225 198 210 213 205 211 181 159 187 186 181 148 170 173 109 163 176 165 202 176 291 123 284 279 269 266 259 261 258 257 254 248 244 279 270 266 260 248

GFSGBSN_2pvu_pres_354.txt.gz
Presure
145 210 177 169 161 191 170 181 170 151 148 177 171 153 178 168 166 136 157 164 134 162 153 137 135 164 154 134 170 154 156 184 146 154 168 151 178 146 156 176 179 176 168 180 186 186 193
215 198 194 213 197 160 165 138 162 190 178 130 188 182 168 172 157 153 156 171 155 145 148 162 138 156 136 156 156 126 124 160 146 132 172 95 134 114 180 136 154 185 114 174 178 176 187
195 157 211 184 196 190 154 195 201 209 180 168 172 172 132 183 138 169 169 163 149 153 139 173 170 158 126 128 151 121 129 147 170 168 169 161 155 177 178 94 174 156 114 172 134 185 189
201 204 206 125 190 184 177 197 225 208 199 184 134 166 152 156 175 159 140 154 163 143 179 148 159 126 174 148 168 131 144 155 182 134 184 159 188 155 168 121 176 123 188 181 188 186 183
165 165 99 152 186 160 194 226 180 214 168 212 165 156 182 158 152 165 164 172 148 172 160 154 133 157 159 173 165 153 139 131 165 174 154 141 166 163 90 159 134 185 180 154 123 146 185
189 167 194 190 193 189 202 205 211 218 211 216 201 198 179 170 171 155 171 173 168 172 169 147 170 143 150 149 166 143 167 137 179 148 164 154 149 158 175 140 142 165 149 181 186 195 163
203 194 192 178 193 201 206 211 223 144 193 207 209 202 175 185 192 170 175 180 169 140 171 175 145 166 163 147 168 169 106 174 137 168 182 168 178 180 143 164 184 179 148 184 182 189 175
202 189 208 205 202 188 207 204 200 191 193 189 189 195 208 201 183 136 169 181 184 182 172 139 168 159 172 157 171 153 180 143 175 168 187 181 170 161 143 183 151 184 192 168 192 154 189
200 170 203 200 200 203 192 190 190 192 186 183 181 172 202 201 215 202 179 160 157 177 181 166 187 181 164 136 178 172 185 189 169 181 187 171 152 161 167 100 178 180 166 183 193 194 192
219 196 218 208 214 213 187 189 170 191 199 183 196 160 182 199 193 208 195 203 180 164 176 189 166 144 187 180 188 183 190 188 188 177 195 152 165 162 154 104 179 185 184 153 160 156 195
178 215 194 204 213 218 216 135 154 177 193 181 177 171 185 205 170 183 210 183 184 179 176 184 161 189 139 174 188 186 191 186 191 191 180 183 118 182 183 177 183 130 188 163 177 188 191
219 211 206 201 209 214 207 221 208 163 158 177 184 171 183 182 168 197 173 198 216 168 184 183 177 167 170 167 205 195 176 180 177 195 192 162 167 118 110 171 178 170 150 183 200 189 191
222 214 217 156 133 211 220 206 207 202 185 167 167 195 203 150 184 167 211 176 190 171 179 199 167 183 196 170 170 181 191 196 189 194 109 137 185 126 186 174 190 177 158 164 205 198 190
204 210 204 207 204 196 206 201 191 201 211 187 183 152 203 189 194 196 197 187 186 189 201 185 187 194 173 193 201 172 177 177 162 188 190 187 138 188 125 181 187 197 174 185 197 185 198
218 219 212 224 203 204 199 206 202 202 190 205 199 174 164 194 204 196 186 199 194 174 198 207 198 194 198 183 184 192 170 171 193 178 177 193 175 184 194 179 158 117 188 136 191 196 222
139 203 215 228 210 204 200 196 200 192 197 212 203 194 189 195 190 189 173 198 182 187 196 179 190 194 202 193 198 174 181 170 158 139 185 129 144 192 185 127 197 147 197 195 196 215 229
203 210 201 213 207 200 213 203 185 191 210 206 208 207 197 194 188 186 181 181 179 191 186 194 192 200 212 202 204 207 172 140 191 183 148 123 98 107 146 188 128 191 195 201 213 229 230
95 205 88 114 79 204 206 196 208 214 204 203 205 204 202 200 197 197 181 191 178 170 197 192 194 187 181 200 204 178 188 188 160 181 163 208 201 182 199 113 187 182 207 213 233 228 222
224 205 199 220 195 155 204 202 207 209 207 200 197 202 199 197 201 199 196 199 141 202 197 153 176 192 198 189 187 188 196 192 114 205 203 101 184 198 170 206 173 208 219 229 234 233 232
255 238 205 194 174 197 196 205 212 193 200 206 198 199 196 197 198 191 188 199 191 188 193 183 197 192 183 198 196 186 198 119 153 201 207 173 153 132 185 97 211 227 245 235 236 239 233
258 238 234 223 161 229 209 195 203 196 148 192 203 203 198 192 187 191 196 185 189 187 202 203 202 145 197 185 176 189 190 203 201 131 130 185 104 182 183 219 236 234 238 243 243 227 219
243 251 232 208 228 222 218 204 211 194 200 195 205 202 204 197 191 190 197 204 212 205 205 211 197 176 162 188 199 208 198 134 206 197 197 148 167 217 232 239 245 252 245 244 232 236 248
250 255 232 221 221 205 217 208 197 200 202 200 201 201 203 198 205 203 202 198 204 200 201 194 207 195 169 182 133 187 212 203 205 127 213 172 142 172 273 264 256 249 256 258 272 291 302
261 248 238 229 231 216 222 211 195 202 200 196 200 199 202 203 200 197 203 203 189 177 198 210 198 187 203 184 182 193 170 139 129 222 238 232 113 100 491 474 433 401 379 364 352 335 314
233 252 248 228 226 221 217 218 202 204 199 192 201 199 197 198 196 197 163 201 206 207 197 203 193 180 157 190 145 169 107 169 109 245 140 397 122 453 443 452 421 399 377 353 326 306 303
246 244 242 234 219 224 218 224 212 207 200 186 203 189 184 191 190 191 201 186 166 201 199 173 192 193 174 177 207 118 196 113 159 474 427 133 407 421 412 386 365 345 327 312 304 293 274
246 251 241 246 231 224 219 218 213 202 206 194 196 193 197 186 192 193 195 199 205 186 160 198 180 177 199 182 174 133 176 185 296 314 407 266 376 364 351 334 323 314 304 287 270 258 246
244 251 239 240 236 226 215 215 215 204 201 204 192 185 194 191 196 188 209 176 202 184 187 193 192 181 151 213 174 204 276 244 283 193 285 267 268 275 290 290 286 275 262 253 241 257 265
255 232 248 238 239 223 218 217 216 207 205 198 202 194 198 186 191 199 183 182 176 157 153 193 182 200 208 180 187 145 286 293 279 138 254 255 246 318 316 303 294 287 279 270 266 259 248